Tracking 22879 objects as of 20-Apr-2021
HD Live streaming from Space Station
objects crossing your sky now

ONEWEB-0050

Track ONEWEB-0050 now!
10-day predictions
ONEWEB-0050 is classified as:


NORAD ID: 45453
Int'l Code: 2020-020AF
Perigee: 574.0 km
Apogee: 607.7 km
Inclination: 87.5 °
Period: 96.3 minutes
Semi major axis: 6961 km
RCS: Unknown
Launch date: March 21, 2020
Source: United Kingdom (UK)
Launch site: TYURATAM MISSILE AND SPACE COMPLEX (TTMTR)
aabbcc
Your satellite tracking list
Your tracking list is empty




NASA's NSSDC Master Catalog

Two Line Element Set (TLE):
1 45453U 20020AF  21110.45365278  .00000541  00000-0  47150-4 0  9991
2 45453  87.5495  13.7871 0024193 312.9617  46.9584 14.94576596 59080
Source of the keplerian elements: AFSPC